Flag Weather past 2 weeks in Pointe-Noire, Congo

Now
82 °F

Scattered clouds.


Feels Like: 89 °F
Forecast: 78 / 83 °F
Wind: 15 mph from South

Location: Pointe Airport-Noire

Current Time: Nov 23, 2014 at 5:14:03 PM

Latest Report: Nov 23, 2014 at 4:00 PM


Visibility: N/A

Pressure: 29.77 "Hg

Humidity: 79%

Dew point: 75 °F

Location of Pointe-NoireLocation

Historic Weather in Pointe-Noire — Graph

°F

Pointe-Noire temperature yesterday

Maximum temperature yesterday: 86 °F (at 1:00 PM)
Minimum temperature yesterday: 79 °F (at 7:00 AM)
Average temperature yesterday: 81 °F

Past Weeks' High & Low Weather Summary

 TemperatureHumidityPressure
High86 °F (Nov 21, 1:00 PM)100% (Nov 15, 2:00 AM)29.95 "Hg (Nov 15, 2:00 AM)
Low72 °F (Nov 17, 8:00 AM)66% (Nov 21, 1:00 PM)29.74 "Hg (Nov 8, 5:00 PM)
Average80 °F85%29.85 "Hg
* Reported Nov 8 4:00 PM — Nov 23 4:00 PM, Pointe-Noire, Weather by CustomWeather, © 2014

Note: Actual official high and low records may vary slightly from our data, if they occured in-between our weather recording intervals... More about our weather records

Advertising

Pointe-Noire weather history for previous 24 hours

 ConditionsComfort  
Time TempWeatherWind HumidityBarometerVisibility
4:00 PM
Nov 23
82 °FScattered clouds.15 mph79%29.77 "HgN/A
3:00 PM84 °FScattered clouds.16 mph79%29.80 "HgN/A
2:00 PM84 °FScattered clouds.15 mph79%29.83 "HgN/A
1:00 PM82 °FScattered clouds.13 mph79%29.86 "HgN/A
12:00 PM84 °FBroken clouds.14 mph79%29.89 "HgN/A
11:00 AM81 °FLight rain. Mostly cloudy.13 mph89%29.92 "Hg5 mi
10:00 AM82 °FDrizzle. Partly sunny.10 mph84%29.92 "HgN/A
9:00 AM81 °FBroken clouds.6 mph89%29.92 "HgN/A
7:00 AM79 °FMostly cloudy.6 mph94%29.89 "Hg4 mi
6:00 AM79 °FMostly cloudy.3 mph94%29.86 "Hg4 mi
5:00 AM79 °FFog.5 mph94%29.86 "Hg2 mi
4:00 AM79 °FLight rain. Mostly cloudy.5 mph94%29.86 "Hg2 mi
3:00 AM79 °FPartly cloudy.2 mph94%29.86 "Hg4 mi
2:00 AM79 °FMostly cloudy.2 mph94%29.86 "Hg4 mi
1:00 AM81 °FPartly cloudy.5 mph84%29.86 "Hg4 mi
12:00 AM81 °FPartly cloudy.6 mph89%29.89 "Hg5 mi
11:00 PM
Nov 22
81 °FPartly cloudy.7 mph84%29.89 "HgN/A
10:00 PM81 °FPartly cloudy.6 mph84%29.89 "HgN/A
9:00 PM81 °FPartly cloudy.6 mph84%29.86 "HgN/A
8:00 PM81 °FPartly cloudy.5 mph84%29.86 "HgN/A
7:00 PM81 °FPartly cloudy.8 mph84%29.83 "HgN/A
6:00 PM82 °FScattered clouds.9 mph84%29.80 "HgN/A
5:00 PM82 °FBroken clouds.9 mph79%29.80 "Hg5 mi
Weather by CustomWeather, © 2014

See weather overviewHow to use our weather pages